ONEWEB-0330 (49108 NORAD) Tracking and Keplerian Element Data

This shows tracking and keplerian element data for the satellite.

Feedback or suggestion? Click here.




ElementValue
Catalog49108
NameONEWEB-0330
Epoch Orbit949
Epoch Day288.25002315
Epoch Year2021
RAAN348.0081
Inclination87.5073
Eccentricity0.0023332
Argument of Perigee111.0465
Mean Anonmoly290.0015
Mean Motion14.66397105
Decay Rate-0.01158314
L11 49108U 21075AK 21288.25002315 -.01158314 00000-0 -22533+0 0 9995
L22 49108 87.5073 348.0081 0023332 111.0465 290.0015 14.66397105 9490

Live tracking and technical data element details for ONEWEB-0330 (NORAD 49108). ONEWEB-0330 can be tracked NOW for your location showing map with azimuth and elevation plus other details from your city location.

Track the satellite on the map from your city or location and see movement details for azimuth, elevation, latitude, longitude, range, height, and movement on the map or in text.







IsCatalogInMostPopularTable: catalog: 49108, numindb: 14
Update: records affected: 1



GetName: 49108 ONEWEB-0330

Hit Count: updated at: Sun, 17 Oct 2021 10:03:34 GMT